Total_Precipitation_Accumulation
0.26 0.26 0.27 0.26 0.23 0.31 0.49 0.62 0.60 0.66 0.76 0.73 0.61 0.55 0.58 0.63 0.63 0.73 0.53 0.49 0.49 0.54 0.83 0.94 0.82 0.75 0.68 0.59 0.48 0.42 0.38 0.37 0.34 0.26 0.24 0.31 0.40 0.46 0.41 0.34 0.33 0.33 0.27
0.42 0.42 0.37 0.39 0.34 0.38 0.48 0.62 0.66 0.81 0.81 0.84 0.67 0.62 0.61 0.63 0.67 0.77 0.69 0.67 0.60 0.56 0.67 0.77 0.81 0.77 0.70 0.65 0.51 0.42 0.37 0.35 0.33 0.25 0.21 0.23 0.31 0.41 0.39 0.38 0.35 0.33 0.29
0.66 0.66 0.54 0.49 0.58 0.66 0.68 0.73 0.79 0.90 0.88 0.85 0.68 0.69 0.65 0.59 0.58 0.59 0.59 0.63 0.66 0.63 0.61 0.63 0.69 0.67 0.67 0.70 0.62 0.53 0.41 0.34 0.30 0.24 0.21 0.17 0.18 0.24 0.26 0.29 0.32 0.32 0.28
0.84 0.79 0.61 0.54 0.82 0.88 0.88 0.97 0.99 1.04 1.14 1.14 0.91 0.79 0.73 0.64 0.52 0.50 0.48 0.51 0.56 0.49 0.48 0.58 0.63 0.62 0.72 0.80 0.82 0.82 0.65 0.47 0.36 0.28 0.21 0.16 0.15 0.17 0.16 0.16 0.21 0.23 0.21
0.91 0.94 0.71 0.68 0.98 1.08 1.07 1.08 1.22 1.37 1.35 1.37 1.17 0.94 0.76 0.63 0.48 0.45 0.42 0.40 0.41 0.41 0.41 0.43 0.45 0.52 0.76 0.95 0.96 0.95 0.89 0.70 0.49 0.38 0.33 0.28 0.22 0.21 0.16 0.12 0.14 0.13 0.12
0.93 1.09 0.83 0.87 1.13 1.16 1.11 1.24 1.35 1.47 1.38 1.45 1.32 0.91 0.70 0.51 0.46 0.36 0.32 0.29 0.25 0.26 0.30 0.37 0.46 0.50 0.68 0.81 0.84 0.87 0.93 0.87 0.67 0.51 0.49 0.44 0.37 0.30 0.21 0.15 0.13 0.13 0.11
0.98 1.20 1.01 1.06 1.15 1.09 1.04 1.22 1.33 1.27 1.16 1.54 1.47 0.90 0.51 0.37 0.28 0.18 0.20 0.19 0.16 0.17 0.25 0.36 0.46 0.53 0.53 0.56 0.65 0.68 0.82 0.91 0.83 0.68 0.62 0.56 0.51 0.39 0.30 0.25 0.18 0.16 0.14
1.07 1.15 1.16 1.10 1.10 1.06 0.92 0.95 1.12 1.05 0.84 1.23 1.37 1.22 0.71 0.37 0.23 0.13 0.15 0.15 0.18 0.24 0.29 0.33 0.39 0.50 0.53 0.56 0.68 0.54 0.61 0.83 0.94 0.90 0.78 0.62 0.51 0.41 0.35 0.32 0.25 0.20 0.17
1.26 1.28 1.17 1.09 1.04 1.04 0.87 0.80 0.95 1.00 0.83 0.92 1.24 1.48 1.05 0.53 0.37 0.19 0.22 0.27 0.34 0.42 0.44 0.47 0.50 0.53 0.58 0.67 0.80 0.86 0.58 0.64 0.86 1.13 1.06 0.79 0.54 0.40 0.35 0.36 0.38 0.29 0.24
1.53 1.40 1.17 1.00 0.88 0.85 0.77 0.73 0.83 0.91 0.92 0.76 0.86 1.01 1.02 0.91 0.75 0.40 0.26 0.33 0.48 0.54 0.55 0.60 0.57 0.56 0.62 0.75 0.87 1.00 0.74 0.59 0.65 0.98 1.12 1.01 0.78 0.55 0.43 0.47 0.64 0.59 0.41
1.51 1.34 1.17 1.02 0.90 0.80 0.72 0.68 0.69 0.72 0.74 0.68 0.69 0.73 0.82 0.86 0.82 0.68 0.45 0.46 0.48 0.40 0.40 0.45 0.56 0.71 0.71 0.79 0.97 1.05 0.99 0.92 0.86 0.81 0.81 0.82 0.80 0.70 0.60 0.65 0.92 1.09 0.93
1.15 1.06 0.95 0.83 0.75 0.70 0.68 0.65 0.62 0.60 0.60 0.62 0.64 0.65 0.73 0.80 0.89 0.93 0.76 0.64 0.57 0.50 0.48 0.46 0.52 0.67 0.72 0.74 0.83 0.95 0.92 0.90 0.85 0.78 0.69 0.64 0.61 0.66 0.76 0.94 1.21 1.45 1.56
0.64 0.61 0.60 0.58 0.57 0.55 0.54 0.53 0.51 0.50 0.52 0.53 0.56 0.63 0.75 0.85 0.92 0.96 0.87 0.72 0.64 0.61 0.67 0.62 0.54 0.61 0.62 0.70 0.75 0.66 0.52 0.54 0.51 0.50 0.50 0.52 0.59 0.67 0.71 0.78 1.00 1.28 1.52
0.46 0.44 0.46 0.48 0.48 0.50 0.48 0.48 0.47 0.45 0.45 0.46 0.45 0.56 0.66 0.69 0.74 0.82 0.86 0.82 0.72 0.72 0.83 0.79 0.61 0.56 0.58 0.62 0.60 0.46 0.41 0.35 0.28 0.23 0.22 0.23 0.28 0.42 0.57 0.71 0.84 0.94 1.07
0.42 0.42 0.45 0.49 0.52 0.55 0.55 0.52 0.49 0.47 0.51 0.54 0.55 0.59 0.64 0.65 0.65 0.69 0.77 0.83 0.83 0.79 0.81 0.81 0.59 0.48 0.47 0.48 0.50 0.44 0.47 0.33 0.17 0.12 0.12 0.13 0.13 0.17 0.26 0.43 0.61 0.74 0.95
0.42 0.45 0.46 0.51 0.54 0.53 0.51 0.49 0.48 0.50 0.56 0.60 0.62 0.69 0.71 0.69 0.64 0.68 0.75 0.85 0.92 0.91 0.80 0.66 0.53 0.46 0.45 0.44 0.41 0.33 0.30 0.25 0.15 0.11 0.10 0.11 0.12 0.14 0.19 0.33 0.48 0.61 0.76
0.39 0.43 0.46 0.48 0.48 0.48 0.48 0.50 0.51 0.56 0.60 0.64 0.65 0.69 0.67 0.64 0.65 0.66 0.71 0.74 0.79 0.86 0.74 0.58 0.50 0.50 0.49 0.52 0.47 0.35 0.26 0.22 0.17 0.13 0.09 0.08 0.10 0.16 0.24 0.31 0.41 0.50 0.57
0.45 0.46 0.48 0.49 0.48 0.51 0.57 0.61 0.61 0.66 0.70 0.70 0.70 0.70 0.65 0.59 0.58 0.55 0.58 0.60 0.65 0.73 0.65 0.53 0.48 0.48 0.52 0.55 0.53 0.44 0.34 0.27 0.25 0.17 0.11 0.09 0.09 0.12 0.15 0.19 0.28 0.42 0.52
0.49 0.50 0.54 0.61 0.64 0.65 0.65 0.69 0.73 0.73 0.68 0.63 0.62 0.59 0.55 0.53 0.51 0.47 0.46 0.44 0.44 0.51 0.54 0.52 0.54 0.53 0.54 0.49 0.48 0.48 0.44 0.42 0.32 0.24 0.16 0.12 0.11 0.12 0.12 0.13 0.18 0.28 0.41
0.39 0.44 0.51 0.61 0.70 0.76 0.79 0.75 0.68 0.65 0.59 0.55 0.51 0.47 0.47 0.47 0.45 0.42 0.43 0.38 0.35 0.40 0.47 0.47 0.49 0.52 0.52 0.48 0.47 0.50 0.52 0.55 0.45 0.33 0.28 0.22 0.19 0.15 0.14 0.12 0.13 0.18 0.29
0.35 0.44 0.53 0.60 0.71 0.79 0.77 0.73 0.63 0.59 0.57 0.49 0.43 0.39 0.39 0.37 0.37 0.38 0.36 0.31 0.27 0.27 0.29 0.33 0.36 0.38 0.41 0.41 0.40 0.41 0.49 0.61 0.58 0.44 0.40 0.39 0.36 0.31 0.27 0.21 0.14 0.12 0.19
0.26 0.31 0.36 0.41 0.45 0.49 0.52 0.48 0.42 0.40 0.39 0.35 0.33 0.32 0.30 0.28 0.31 0.32 0.28 0.27 0.24 0.19 0.18 0.24 0.25 0.28 0.31 0.31 0.31 0.38 0.49 0.54 0.64 0.64 0.59 0.58 0.53 0.49 0.41 0.31 0.22 0.13 0.12
0.17 0.20 0.21 0.23 0.24 0.26 0.23 0.19 0.20 0.20 0.23 0.24 0.23 0.23 0.21 0.21 0.25 0.26 0.23 0.18 0.17 0.16 0.15 0.19 0.21 0.18 0.20 0.23 0.26 0.36 0.51 0.66 0.76 0.81 0.76 0.75 0.62 0.55 0.50 0.42 0.31 0.19 0.13
0.17 0.18 0.18 0.17 0.17 0.18 0.15 0.12 0.11 0.11 0.13 0.16 0.18 0.18 0.19 0.19 0.20 0.19 0.16 0.13 0.11 0.12 0.14 0.15 0.16 0.15 0.13 0.15 0.20 0.25 0.32 0.46 0.65 0.75 0.78 0.88 0.85 0.76 0.70 0.63 0.51 0.33 0.22
0.23 0.21 0.20 0.19 0.18 0.18 0.14 0.11 0.10 0.11 0.14 0.15 0.16 0.17 0.17 0.16 0.20 0.17 0.14 0.12 0.11 0.11 0.13 0.15 0.14 0.14 0.13 0.12 0.11 0.12 0.13 0.14 0.23 0.30 0.34 0.51 0.71 0.79 0.86 0.85 0.74 0.58 0.42
0.31 0.28 0.25 0.25 0.26 0.27 0.23 0.16 0.13 0.14 0.18 0.20 0.21 0.21 0.22 0.19 0.19 0.17 0.14 0.15 0.13 0.10 0.09 0.11 0.11 0.12 0.11 0.10 0.09 0.07 0.07 0.08 0.09 0.13 0.11 0.16 0.29 0.41 0.58 0.66 0.67 0.65 0.58